Home > Weather > Amstetten > Past weeks

Flag for Austria Past Weather in Amstetten, Lower Austria, Austria — Yesterday and Last 2 Weeks

Now
59 °F

Light rain. Low clouds.


Feels Like: 59 °F
Forecast: 53 / 75 °F
Wind: 5 mph from West

Location: Linz / Hoersching-Flughafen

Current Time: Jun 27, 2016 at 2:28:59 AM

Latest Report: Jun 27, 2016 at 1:00 AM


Visibility: 7 mi

Pressure: 30.09 "Hg

Humidity: 95%

Dew Point: 58 °F

Location of AmstettenLocation

Past Weather in Amstetten — Graph

°F

Amstetten Temperature Yesterday

Maximum temperature yesterday: 72 °F (at 5:00 PM)
Minimum temperature yesterday: 63 °F (at 8:00 AM)
Average temperature yesterday: 67 °F

High & Low Weather Summary for the Past Weeks

 TemperatureHumidityPressure
High92 °F (Jun 24, 4:00 PM)100% (Jun 21, 6:00 AM)30.29 "Hg (Jun 21, 6:00 AM)
Low53 °F (Jun 21, 2:00 AM)32% (Jun 24, 5:00 PM)29.44 "Hg (Jun 16, 5:00 PM)
Average66 °F74%29.93 "Hg
* Reported Jun 12 1:00 AM — Jun 27 1:00 AM, Amstetten, Weather by CustomWeather, © 2016

Note: Actual official high and low records may vary slightly from our data, if they occured in-between our weather recording intervals... More about our weather records

Advertising

Amstetten Weather History for the Previous 24 Hours

Scroll right to see more
 ConditionsComfort  
Time TempWeatherWind HumidityBarometerVisibility
1:00 AM
Mon, Jun 27
59 °FLight rain. Low clouds.5 mph95%30.09 "Hg7 mi
12:00 AM59 °FRain. Low clouds.6 mph94%30.10 "Hg5 mi
11:00 PM
Sun, Jun 26
63 °FPassing clouds.13 mph77%30.07 "Hg2 mi
10:00 PM64 °FOvercast.6 mph79%30.06 "Hg31 mi
9:00 PM66 °FOvercast.5 mph77%30.03 "Hg28 mi
8:00 PM66 °FOvercast.5 mph81%30.02 "Hg28 mi
7:00 PM68 °FRain showers. Overcast.5 mph80%30.01 "Hg16 mi
6:00 PM71 °FOvercast.5 mph62%30.00 "Hg28 mi
5:00 PM72 °FOvercast.5 mph58%29.99 "Hg22 mi
4:00 PM72 °FPartly sunny.3 mph59%30.00 "Hg25 mi
3:00 PM71 °FOvercast.3 mph59%30.02 "Hg25 mi
2:00 PM70 °FOvercast.5 mph62%30.04 "Hg22 mi
1:00 PM69 °FOvercast.N/A64%30.06 "Hg28 mi
12:00 PM69 °FScattered clouds.5 mph64%30.06 "Hg19 mi
11:00 AM67 °FPartly sunny.6 mph71%30.06 "Hg13 mi
10:00 AM65 °FPartly sunny.6 mph78%30.06 "Hg22 mi
9:00 AM63 °FOvercast.5 mph81%30.07 "Hg25 mi
8:00 AM63 °FOvercast.5 mph84%30.06 "Hg16 mi
7:00 AM64 °FLight rain. Overcast.3 mph88%30.05 "Hg11 mi
6:00 AM64 °FPartly sunny.6 mph84%30.04 "Hg19 mi
5:00 AM64 °FPassing clouds.5 mph84%30.02 "Hg17 mi
4:00 AM65 °FOvercast.6 mph85%30.01 "Hg19 mi
3:00 AM66 °FPassing clouds.6 mph84%30.00 "Hg22 mi
2:00 AM66 °FOvercast.7 mph85%30.00 "Hg31 mi
Weather by CustomWeather, © 2016

See weather overviewHow to use our weather pages